Flag for Germany Weather past 2 weeks in Neu-Ulm, Bavaria, Germany

Now
59 °F

Light rain. Passing clouds.


Feels Like: 58 °F
Forecast: 53 / 62 °F
Wind: 7 mph from Southwest

Location: Laupheim Airport

Current Time: Jul 29, 2015 at 12:34:00 AM

Latest Report: Jul 28, 2015 at 11:20 PM


Visibility: N/A

Pressure: 29.92 "Hg

Humidity: 68%

Dew point: 48 °F

Location of Neu-UlmLocation

Historic Weather in Neu-Ulm — Graph

°F

Neu-Ulm temperature yesterday

Maximum temperature yesterday: 70 °F (at 4:20 PM)
Minimum temperature yesterday: 61 °F (at 12:20 AM)
Average temperature yesterday: 64 °F

Past Weeks' High & Low Weather Summary

 TemperatureHumidityPressure
High91 °F (Jul 17, 3:20 PM)100% (Jul 19, 5:01 AM)30.18 "Hg (Jul 19, 5:01 AM)
Low48 °F (Jul 26, 6:20 AM)29% (Jul 16, 5:20 PM)29.77 "Hg (Jul 24, 6:20 PM)
Average70 °F65%30.00 "Hg
* Reported Jul 13 10:20 PM — Jul 28 10:20 PM, Neu-Ulm, Weather by CustomWeather, © 2015

Note: Actual official high and low records may vary slightly from our data, if they occured in-between our weather recording intervals... More about our weather records

Advertising

Neu-Ulm weather history for previous 24 hours

 ConditionsComfort  
Time TempWeatherWind HumidityBarometerVisibility
10:20 PM
Tue, Jul 28
61 °FLight rain. Mostly cloudy.6 mph63%29.89 "HgN/A
9:20 PM64 °FLight rain. Mostly cloudy.8 mph46%29.89 "HgN/A
8:20 PM66 °FBroken clouds.9 mph43%29.86 "HgN/A
7:20 PM68 °FBroken clouds.10 mph43%29.83 "HgN/A
6:20 PM68 °FPartly sunny.10 mph46%29.83 "HgN/A
5:20 PM70 °FPartly sunny.13 mph43%29.83 "HgN/A
4:20 PM70 °FScattered clouds.17 mph46%29.83 "HgN/A
3:20 PM68 °FScattered clouds.22 mph46%29.83 "HgN/A
2:20 PM68 °FScattered clouds.22 mph46%29.86 "HgN/A
1:20 PM64 °FBroken clouds.15 mph56%29.86 "HgN/A
12:20 PM64 °FPartly sunny.17 mph56%29.89 "HgN/A
11:20 AM64 °FPartly sunny.18 mph56%29.89 "HgN/A
10:20 AM64 °FBroken clouds.16 mph56%29.86 "HgN/A
9:20 AM64 °FBroken clouds.18 mph60%29.86 "HgN/A
8:20 AM64 °FPartly sunny.14 mph64%29.86 "HgN/A
7:20 AM61 °FBroken clouds.10 mph68%29.86 "HgN/A
6:20 AM61 °FPartly cloudy.10 mph68%29.83 "HgN/A
5:20 AM61 °FPartly cloudy.9 mph68%29.83 "HgN/A
4:20 AM61 °FPassing clouds.9 mph68%29.83 "HgN/A
3:20 AM61 °FPartly cloudy.8 mph68%29.83 "HgN/A
2:20 AM61 °FPassing clouds.7 mph68%29.86 "HgN/A
1:20 AM61 °FPassing clouds.8 mph68%29.86 "HgN/A
12:20 AM61 °FPassing clouds.8 mph68%29.86 "HgN/A
Weather by CustomWeather, © 2015

See weather overviewHow to use our weather pages